Time,TemperatureF,DewpointF,PressureIn,WindDirection,WindDirectionDegrees,WindSpeedMPH,WindSpeedGustMPH,Humidity,HourlyPrecipIn,Conditions,Clouds,dailyrainin,SoftwareType,DateUTC
2013-08-14 00:12:00,83.0,73.0,-100.00,SSE,165,6.0,14.0,72,-99.99,,,-99.99,,2013-08-14 04:12:00,
2013-08-14 00:23:00,83.0,73.0,-100.00,SSE,163,6.0,13.0,73,-99.99,,,-99.99,,2013-08-14 04:23:00,
2013-08-14 00:52:00,83.0,74.0,-100.00,SSE,167,6.0,11.0,74,-99.99,,,-99.99,,2013-08-14 04:52:00,
2013-08-14 01:22:00,83.0,73.0,-100.00,SSW,200,4.0,11.0,73,-99.99,,,-99.99,,2013-08-14 05:22:00,
2013-08-14 01:52:00,83.0,74.0,-100.00,SSE,159,6.0,13.0,74,-99.99,,,-99.99,,2013-08-14 05:52:00,
2013-08-14 02:21:00,84.0,75.0,-100.00,SSE,149,6.0,14.0,74,-99.99,,,-99.99,,2013-08-14 06:21:00,
2013-08-14 02:52:00,83.0,73.0,-100.00,SE,141,7.0,14.0,73,-99.99,,,-99.99,,2013-08-14 06:52:00,
2013-08-14 03:21:00,83.0,74.0,-100.00,SSE,150,5.0,12.0,75,-99.99,,,-99.99,,2013-08-14 07:21:00,
2013-08-14 03:52:00,83.0,74.0,-100.00,SSE,152,7.0,11.0,75,-99.99,,,-99.99,,2013-08-14 07:52:00,
2013-08-14 04:21:00,83.0,75.0,-100.00,WSW,240,8.0,17.0,76,-99.99,,,-99.99,,2013-08-14 08:21:00,
2013-08-14 04:52:00,83.0,74.0,-100.00,East,96,8.0,13.0,75,-99.99,,,-99.99,,2013-08-14 08:52:00,
2013-08-14 05:21:00,83.0,73.0,-100.00,NE,34,6.0,12.0,71,-99.99,,,-99.99,,2013-08-14 09:21:00,
2013-08-14 05:53:00,83.0,73.0,-100.00,WSW,248,7.0,13.0,73,-99.99,,,-99.99,,2013-08-14 09:53:00,
2013-08-14 06:23:00,82.0,73.0,-100.00,SSE,152,6.0,11.0,74,-99.99,,,-99.99,,2013-08-14 10:23:00,
2013-08-14 06:52:00,82.0,74.0,-100.00,NE,38,8.0,14.0,76,-99.99,,,-99.99,,2013-08-14 10:52:00,
2013-08-14 07:21:00,82.0,73.0,-100.00,SSE,167,8.0,16.0,75,-99.99,,,-99.99,,2013-08-14 11:21:00,
2013-08-14 07:52:00,82.0,72.0,-100.00,East,89,7.0,12.0,73,-99.99,,,-99.99,,2013-08-14 11:52:00,
2013-08-14 08:21:00,83.0,73.0,-100.00,East,93,7.0,12.0,73,-99.99,,,-99.99,,2013-08-14 12:21:00,
2013-08-14 08:52:00,84.0,74.0,-100.00,East,90,5.0,12.0,72,-99.99,,,-99.99,,2013-08-14 12:52:00,
2013-08-14 09:22:00,84.0,73.0,-100.00,SSW,200,6.0,12.0,70,-99.99,,,-99.99,,2013-08-14 13:22:00,
2013-08-14 09:52:00,85.0,74.0,-100.00,SSE,153,4.0,12.0,69,-99.99,,,-99.99,,2013-08-14 13:52:00,
2013-08-14 10:22:00,85.0,73.0,-100.00,East,83,5.0,12.0,68,-99.99,,,-99.99,,2013-08-14 14:22:00,
2013-08-14 10:52:00,86.0,73.0,-100.00,NNE,21,4.0,11.0,66,-99.99,,,-99.99,,2013-08-14 14:52:00,
2013-08-14 11:22:00,87.0,71.0,-100.00,SSE,165,3.0,12.0,60,-99.99,,,-99.99,,2013-08-14 15:22:00,
2013-08-14 11:56:00,88.0,74.0,-100.00,South,191,6.0,12.0,63,-99.99,,,-99.99,,2013-08-14 15:56:00,
2013-08-14 12:28:00,88.0,74.0,-100.00,NE,37,6.0,13.0,63,-99.99,,,-99.99,,2013-08-14 16:28:00,
2013-08-14 13:05:00,88.0,73.0,-100.00,NE,52,6.0,13.0,61,-99.99,,,-99.99,,2013-08-14 17:05:00,
2013-08-14 13:29:00,87.0,73.0,-100.00,NE,34,7.0,14.0,64,-99.99,,,-99.99,,2013-08-14 17:29:00,
2013-08-14 13:55:00,87.0,72.0,-100.00,NNE,13,7.0,12.0,62,-99.99,,,-99.99,,2013-08-14 17:55:00,
2013-08-14 14:30:00,-999.0,-99.9,-100.00,SSE,149,8.0,17.0,62,-99.99,,,-99.99,,2013-08-14 18:30:00,
2013-08-14 14:36:00,88.0,73.0,-100.00,SSE,149,8.0,17.0,62,-99.99,,,-99.99,,2013-08-14 18:36:00,
2013-08-14 15:01:00,-999.0,-99.9,-100.00,SE,136,8.0,16.0,-999,-99.99,,,-99.99,,2013-08-14 19:01:00,
2013-08-14 15:34:00,89.0,73.0,-100.00,South,184,6.0,14.0,59,-99.99,,,-99.99,,2013-08-14 19:34:00,
2013-08-14 15:58:00,88.0,73.0,-100.00,South,184,8.0,16.0,62,-99.99,,,-99.99,,2013-08-14 19:58:00,
2013-08-14 16:53:00,88.0,72.0,-100.00,ENE,77,8.0,14.0,60,-99.99,,,-99.99,,2013-08-14 20:53:00,
2013-08-14 17:24:00,87.0,72.0,-100.00,NNE,30,8.0,14.0,62,-99.99,,,-99.99,,2013-08-14 21:24:00,
2013-08-14 17:55:00,88.0,73.0,-100.00,NE,34,6.0,13.0,61,-99.99,,,-99.99,,2013-08-14 21:55:00,
2013-08-14 18:23:00,87.0,72.0,-100.00,NNE,14,6.0,13.0,61,-99.99,,,-99.99,,2013-08-14 22:23:00,
2013-08-14 18:55:00,87.0,73.0,-100.00,North,359,7.0,13.0,63,-99.99,,,-99.99,,2013-08-14 22:55:00,
2013-08-14 19:25:00,86.0,74.0,-100.00,East,87,7.0,16.0,67,-99.99,,,-99.99,,2013-08-14 23:25:00,
2013-08-14 19:56:00,84.0,73.0,-100.00,NNE,13,8.0,15.0,70,-99.99,,,-99.99,,2013-08-14 23:56:00,
2013-08-14 20:12:00,84.0,74.0,-100.00,NE,42,7.0,15.0,71,-99.99,,,-99.99,,2013-08-15 00:12:00,
2013-08-14 20:23:00,84.0,73.0,-100.00,SE,127,7.0,15.0,70,-99.99,,,-99.99,,2013-08-15 00:23:00,
2013-08-14 20:52:00,84.0,74.0,-100.00,South,172,7.0,15.0,71,-99.99,,,-99.99,,2013-08-15 00:52:00,
2013-08-14 21:22:00,84.0,73.0,-100.00,SE,138,8.0,14.0,69,-99.99,,,-99.99,,2013-08-15 01:22:00,
2013-08-14 21:52:00,84.0,73.0,-100.00,SSE,155,11.0,24.0,69,-99.99,,,-99.99,,2013-08-15 01:52:00,
2013-08-14 22:21:00,81.0,74.0,-100.00,NE,53,11.0,18.0,80,-99.99,,,-99.99,,2013-08-15 02:21:00,
2013-08-14 23:01:00,83.0,72.0,-100.00,SE,138,8.0,16.0,70,-99.99,,,-99.99,,2013-08-15 03:01:00,
2013-08-14 23:22:00,83.0,72.0,-100.00,SE,138,8.0,16.0,70,-99.99,,,-99.99,,2013-08-15 03:22:00,
2013-08-14 23:33:00,83.0,72.0,-100.00,SE,138,8.0,16.0,70,-99.99,,,-99.99,,2013-08-15 03:33:00,
2013-08-14 23:53:00,83.0,72.0,-100.00,SE,138,8.0,16.0,70,-99.99,,,-99.99,,2013-08-15 03:53:00,